Ashland, WI

2:58 AM CST on January 22, 2017 (GMT -0600)
Kennedy Memorial

Weather History for KASX - February, 2014

Change the Weather History Date:

Friday, February 7, 2014

  Actual Average Record
Temperature  
Mean Temperature 6 °F -  
Max Temperature 14 °F 25 °F 50 °F (1987)
Min Temperature -2 °F 1 °F -25 °F (1967)
Degree Days  
Heating Degree Days 59    
Moisture  
Dew Point -8 °F    
Average Humidity 56    
Maximum Humidity 76    
Minimum Humidity 37    
Precipitation  
Precipitation 0.00 in - - ()
Sea Level Pressure  
Sea Level Pressure 30.10 in    
Wind  
Wind Speed 14 mph (SW)    
Max Wind Speed 21 mph    
Max Gust Speed 30 mph    
Visibility 10 miles    
Events      
Averages and records for this station are not official NWS values.
T = Trace of Precipitation, MM = Missing Value Source: NWS Daily Summary

Daily Weather History Graph

Daily Weather History Graph

Search for Another Location

Airport or City:

Trip Planner

Search our weather history database for the weather conditions in past years. The results will help you decide how hot, cold, wet, or windy it might be!

Date:

Astronomy

Feb. 07, 2014 Rise Set
Actual Time 7:19 AM CST 5:16 PM CST
Civil Twilight 6:47 AM CST 5:48 PM CST
Nautical Twilight 6:11 AM CST 6:24 PM CST
Astronomical Twilight 5:36 AM CST 6:59 PM CST
Moon 11:24 AM CST (2/7) 1:38 AM CST (2/7)
Length of Visible Light 11h 00m
Length of Day
9h 57m
First Quarter, 59% of the Moon is Illuminated
Feb 7
First Quarter
Feb 14
Full
Feb 22
Last Quarter
Mar 1
New
Mar 8
First Quarter

Hourly Weather History & Observations

Time (CST) Temp. Windchill Dew Point Humidity Pressure Visibility Wind Dir Wind Speed Gust Speed Precip Events Conditions
12:53 AM -0.9 °F -19.9 °F -8.0 °F 72% 30.12 in 10.0 mi SW 13.8 mph - N/A   Clear
1:53 AM -0.9 °F -20.6 °F -7.1 °F 75% 30.12 in 10.0 mi WSW 15.0 mph 24.2 mph N/A   Clear
2:53 AM -2.0 °F -21.2 °F -8.0 °F 76% 30.09 in 10.0 mi SW 13.8 mph 23.0 mph N/A   Clear
3:53 AM -0.9 °F -19.9 °F -8.0 °F 72% 30.09 in 10.0 mi SW 13.8 mph - N/A   Clear
4:53 AM -0.9 °F -19.9 °F -8.0 °F 72% 30.09 in 10.0 mi SW 13.8 mph 21.9 mph N/A   Clear
6:53 AM -2.0 °F -21.9 °F -9.0 °F 72% 30.08 in 10.0 mi SW 15.0 mph - N/A   Clear
7:53 AM -2.0 °F -22.6 °F -9.9 °F 69% 30.07 in 10.0 mi SW 16.1 mph 21.9 mph N/A   Clear
8:53 AM 1.0 °F -17.3 °F -9.0 °F 63% 30.08 in 10.0 mi SW 13.8 mph 23.0 mph N/A   Clear
9:53 AM 3.0 °F -15.5 °F -8.0 °F 60% 30.07 in 10.0 mi WSW 15.0 mph 24.2 mph N/A   Clear
10:53 AM 7.0 °F -9.8 °F -7.1 °F 53% 30.08 in 10.0 mi WSW 13.8 mph 21.9 mph N/A   Clear
11:53 AM 9.0 °F -8.5 °F -7.1 °F 48% 30.06 in 10.0 mi WSW 16.1 mph 24.2 mph N/A   Clear
12:53 PM 10.9 °F -6.5 °F -7.1 °F 44% 30.06 in 10.0 mi WSW 17.3 mph 26.5 mph N/A   Clear
1:53 PM 12.9 °F -3.9 °F -7.1 °F 41% 30.06 in 10.0 mi WSW 17.3 mph 26.5 mph N/A   Clear
2:53 PM 14.0 °F -3.9 °F -8.0 °F 37% 30.05 in 10.0 mi WSW 20.7 mph 29.9 mph N/A   Clear
3:53 PM 14.0 °F -2.5 °F -7.1 °F 39% 30.06 in 10.0 mi WSW 17.3 mph 23.0 mph N/A   Clear
4:53 PM 12.0 °F -4.5 °F -8.0 °F 41% 30.09 in 10.0 mi WSW 16.1 mph 23.0 mph N/A   Clear
5:53 PM 10.0 °F -5.2 °F -9.0 °F 42% 30.12 in 10.0 mi WSW 12.7 mph 23.0 mph N/A   Clear
6:53 PM 8.1 °F -8.4 °F -9.0 °F 46% 30.14 in 10.0 mi WSW 13.8 mph - N/A   Clear
7:53 PM 7.0 °F -9.8 °F -9.0 °F 48% 30.15 in 10.0 mi WSW 13.8 mph - N/A   Clear
8:53 PM 6.1 °F -7.8 °F -9.0 °F 50% 30.16 in 10.0 mi WSW 9.2 mph - N/A   Clear
9:53 PM 5.0 °F -9.1 °F -9.0 °F 52% 30.18 in 10.0 mi WSW 9.2 mph - N/A   Clear
10:53 PM 3.9 °F -8.2 °F -9.0 °F 55% 30.18 in 10.0 mi SW 6.9 mph - N/A   Clear
11:53 PM 3.0 °F -11.5 °F -9.0 °F 57% 30.19 in 10.0 mi WSW 9.2 mph - N/A   Clear